Voltar ao catálogo

COSMOS 1030 DEB

LostHEO
NORAD 12919·DEBRIS·🇷🇺 Russia

Lançado Sep 6, 1978 de Plesetsk Cosmodrome

Loading…

Próximas Passagens (próximas 24 horas)

TLE

ObsoletoSource: Space-Track

Época: Mar 26, 2026, 15:39 UTC

1 12919U 78083F   26085.65247900  .00000774  00000-0  00000-0 0  9990
2 12919  66.1813 264.0770 6386281 343.6465   2.7129  2.00063366 66931

Acompanhe COSMOS 1030 DEB em tempo real com AllMySat

Download on the App Store